This is the latest recevied weather packets stored in our database for station/object KB3FKJ. If no packets are shown the sender has not sent any weather packets the latest 10 day(s).
| Time | Temp. | Humidity | Pressure | Rain* | Wind** | Luminosity | Snow |
|---|---|---|---|---|---|---|---|
| 1777550828 | 8.89° C | 84% | 1008.8 hPa | 0 mm | - | 55 W/m² | - |
| 1777550523 | 8.89° C | 82% | 1008.8 hPa | 0 mm | - | 51 W/m² | - |
| 1777550219 | 8.33° C | 84% | 1008.9 hPa | 0 mm | - | 61 W/m² | - |
| 1777549916 | 8.89° C | 83% | 1008.9 hPa | 0 mm | - | 60 W/m² | - |
| 1777549612 | 8.89° C | 83% | 1008.7 hPa | 0 mm | - | 56 W/m² | - |
| 1777549307 | 8.89° C | 82% | 1008.8 hPa | 0 mm | - | 49 W/m² | - |
| 1777549005 | 8.33° C | 83% | 1008.9 hPa | 0 mm | - | 81 W/m² | - |
| 1777548701 | 7.78° C | 84% | 1008.8 hPa | 0 mm | - | 60 W/m² | - |
| 1777548399 | 7.78° C | 84% | 1009.1 hPa | 0 mm | - | 30 W/m² | - |
| 1777548096 | 7.78° C | 85% | 1008.9 hPa | 0 mm | - | 25 W/m² | - |
| 1777547791 | 7.78° C | 85% | 1008.8 hPa | 0 mm | - | 17 W/m² | - |
| 1777547488 | 7.78° C | 87% | 1008.8 hPa | 0 mm | - | 37 W/m² | - |
| 1777547185 | 7.78° C | 88% | 1008.8 hPa | 0 mm | - | 27 W/m² | - |
| 1777546882 | 7.78° C | 90% | 1008.6 hPa | 0 mm | - | 20 W/m² | - |
| 1777546579 | 7.78° C | 91% | 1008.7 hPa | 0 mm | - | 16 W/m² | - |
| 1777546276 | 7.78° C | 91% | 1008.6 hPa | 0 mm | - | 18 W/m² | - |
| 1777545973 | 7.78° C | 90% | 1008.5 hPa | 0 mm | - | 14 W/m² | - |
| 1777545669 | 7.78° C | 91% | 1008.7 hPa | 0 mm | - | 10 W/m² | - |
| 1777545367 | 7.78° C | 92% | 1008.7 hPa | 0 mm | - | 7 W/m² | - |
| 1777545063 | 7.78° C | 92% | 1008.6 hPa | 0 mm | - | 5 W/m² | - |
| 1777544760 | 7.78° C | 93% | 1008.6 hPa | 0 mm | - | 3 W/m² | - |
| 1777544455 | 7.78° C | 93% | 1008.5 hPa | 0 mm | - | 2 W/m² | - |
| 1777544152 | 7.78° C | 93% | 1008.6 hPa | 0 mm | - | 1 W/m² | - |
| 1777543850 | 7.78° C | 93% | 1008.6 hPa | 0 mm | - | 0 W/m² | - |
| 1777543546 | 7.78° C | 93% | 1008.7 hPa | 0 mm | - | 0 W/m² | - |
* Rain latest hour (hover to see other rain measurements)
** Current wind speed in m/s (hover to see current wind gust speed)